SL-14 R/B

Satellite information

Favourite Embed

Satellite Type and Status

ROCKET BODYIN ORBIT

Key statistics

Satellite SL-14 R/B at a glance.

Uptime

14915

Days in orbit

Revolutions

≈ 13.8

Per day

Orbit

LEO

Low Earth Orbit

Inclination

82.5

Latest

Satellite identification and parameters

Extended collection of information and parameters for SL-14 R/B.

Object identification

Identified? True

Debris? False

Object name: SL-14 R/B

International designator: 1984-072B

Object number (NORAD): 15100

Object ID (CCSDS): 15100

Country: COMMONWEALTH OF INDEPENDENT STATES (CIS)

Current information (Y/N): Y

RCS size: LARGE

Orbital parameters

Period: 104.006 minutes

Inclination: 82.5331 deg

SMA: 7325.977 km

Apoapsis: 956.547 km

Periapsis: 939.136 km

RAAN: 9.6394 deg

Eccentricy: 0.0011883

Argument of periapsis: 177.1037 deg

Mean anomaly: 183.0195 deg

Mean motion: 13.84536657 rev/day

Mean motion (dot): 0.00000038 rev/day2

B* drag term: 0.000020623 1/REarth

Two-line elements (TLE)

Creation date: May 6, 2025, 3:54 a.m.

Reference frame: TEME

Reference center: EARTH

Epoch: May 5, 2025, 4:07 p.m. UTC

TLE line 0: 0 SL-14 R/B

TLE line 1: 1 15100U 84072B 25125.67200669 .00000038 00000-0 20623-4 0 9997

TLE line 2: 2 15100 82.5331 9.6394 0011883 177.1037 183.0195 13.84536657 63081

Live tracking on map

Real-time ground track for satellite SL-14 R/B.

In-orbit conjunctions

A list of the most updated potential collisions computed for object SL-14 R/B.

Target Orbit TCA Probability of collision Miss distance Type
CZ-6A DEB LEO 2025-02-28 17:02:06 0.00222476 56.0 (m) DEBRIS
CZ-6A DEB LEO 2024-11-10 03:09:41 0.0004087734 568.0 (m) DEBRIS

Associated space launch

Second generation soviet meteorological satellite

SL-14 R/B was lifted into orbit during the mission ‘Tsiklon-3 | Meteor-2 11’, on board a Tsiklon-3 space rocket.

The launch took place on July 5, 1984, 3:35 a.m. from 32/2.

For more information about the launch, click the button.

Launch to space Tsiklon-3 | Meteor-2 11
Tsiklon-3 | Meteor-2 11

Agency: N/A

Status: Launch Successful

Launch date: July 5, 1984, 3:35 a.m. UTC

Rocket: Tsiklon-3

Launch pad: 32/2

Location: Plesetsk Cosmodrome, Russian Federation

...

Latest news about this satellite

There are no fresh news available about this satellite. Check back as we update our databases every day.


Newsletter sign-up

Weekly statistics, charts and insights to help you stay on top of the space industry.